User: anonymous   Login
Location: Bismarck
(46.7731°N, 100.8200°W)
Time: 05:27:57
(UTC-05:00)
Language:

Cosmos 1125 Rocket - Orbit

View from above orbital plane
View from above orbital plane
View from above satellite
View from above satellite

Ground track
Ground track

The orbit data is extracted from the following two-line orbital elements,

1 11511U 79078B   16269.43283263  .00000106  00000-0  44927-4 0  9992
2 11511  74.0351  81.9038 0015193  27.4075 332.7877 14.36732883940593
Epoch (UTC): 25 September 2016 10:23:16
Eccentricity: 0.0015193
inclination: 74.0351°
perigee height: 758 km
apogee height: 780 km
right ascension of ascending node: 81.9038°
argument of perigee: 27.4075°
revolutions per day: 14.36732883
mean anomaly at epoch: 332.7877°
orbit number at epoch: 94059

The dashed part of the orbit path shows where the satellite is in the earth's shadow,  

DLR